Location: La Coruña
(43.3623°N, 8.4115°W)
Time: 11:16:10
(UTC+01:00)

STARLINK-1130 (DARKSAT) - Pass Details

Date: 18 January 2020
Orbit: 525 x 526 km, 53.0° (Epoch: 18 February)

Event Time Altitude Azimuth Distance (km) Brightness Sun altitude
Rises 19:04:12 0° 240° (WSW) 2,639 9.4 -7.1°
Reaches altitude 10° 19:06:25 10° 242° (WSW) 1,752 7.9 -7.5°
Maximum altitude 19:10:22 70° 326° (NNW) 555 3.7 -8.1°
Enters shadow 19:14:17 10° 51° (NE) 1,728 5.6 -8.8°
